TimeCDT,TemperatureF,Dew PointF,Humidity,Sea Level PressureIn,VisibilityMPH,Wind Direction,Wind SpeedMPH,Gust SpeedMPH,PrecipitationIn,Events,Conditions,WindDirDegrees,DateUTC
12:54 AM,63.0,46.9,56,30.17,10.0,NNE,8.1,-,N/A,,Partly Cloudy,30,2013-09-13 05:54:00
1:54 AM,62.1,46.9,58,30.17,10.0,NE,9.2,-,N/A,,Partly Cloudy,50,2013-09-13 06:54:00
2:54 AM,59.0,46.9,64,30.17,10.0,NE,6.9,-,N/A,,Clear,50,2013-09-13 07:54:00
3:54 AM,59.0,46.9,64,30.18,10.0,NNE,4.6,-,N/A,,Clear,30,2013-09-13 08:54:00
4:54 AM,57.0,46.9,69,30.18,10.0,NE,6.9,-,N/A,,Clear,50,2013-09-13 09:54:00
5:54 AM,55.9,46.0,69,30.20,10.0,ENE,5.8,-,N/A,,Clear,70,2013-09-13 10:54:00
6:54 AM,55.9,46.0,69,30.21,10.0,NE,4.6,-,N/A,,Partly Cloudy,50,2013-09-13 11:54:00
7:54 AM,57.0,46.9,69,30.22,10.0,NE,5.8,-,N/A,,Partly Cloudy,50,2013-09-13 12:54:00
8:54 AM,61.0,46.9,60,30.23,10.0,East,8.1,-,N/A,,Partly Cloudy,80,2013-09-13 13:54:00
9:54 AM,64.0,46.9,54,30.24,10.0,East,4.6,-,N/A,,Partly Cloudy,90,2013-09-13 14:54:00
10:54 AM,66.9,46.0,47,30.23,10.0,Calm,Calm,-,N/A,,Partly Cloudy,0,2013-09-13 15:54:00
12:54 PM,71.1,44.1,38,30.19,10.0,North,6.9,-,N/A,,Partly Cloudy,10,2013-09-13 17:54:00
1:54 PM,73.0,44.1,35,30.17,10.0,Variable,4.6,-,N/A,,Partly Cloudy,0,2013-09-13 18:54:00
2:54 PM,73.9,43.0,33,30.15,10.0,Calm,Calm,-,N/A,,Partly Cloudy,0,2013-09-13 19:54:00
3:54 PM,75.9,43.0,31,30.13,10.0,NNE,5.8,-,N/A,,Partly Cloudy,20,2013-09-13 20:54:00
4:54 PM,75.0,43.0,32,30.12,10.0,Calm,Calm,-,N/A,,Partly Cloudy,0,2013-09-13 21:54:00
5:54 PM,73.0,42.1,33,30.11,10.0,Calm,Calm,-,N/A,,Partly Cloudy,0,2013-09-13 22:54:00
6:54 PM,72.0,42.1,34,30.11,10.0,ESE,6.9,-,N/A,,Partly Cloudy,120,2013-09-13 23:54:00
7:54 PM,69.1,43.0,39,30.10,10.0,East,4.6,-,N/A,,Partly Cloudy,100,2013-09-14 00:54:00
8:54 PM,64.9,45.0,48,30.11,10.0,East,6.9,-,N/A,,Clear,100,2013-09-14 01:54:00
9:54 PM,63.0,45.0,52,30.11,10.0,East,5.8,-,N/A,,Clear,90,2013-09-14 02:54:00
10:54 PM,62.1,44.1,52,30.11,10.0,East,5.8,-,N/A,,Clear,100,2013-09-14 03:54:00
11:54 PM,61.0,43.0,52,30.11,10.0,East,5.8,-,N/A,,Partly Cloudy,100,2013-09-14 04:54:00